Location: Wingville
(42.9917°N, 90.4915°W)
Time: 05:42:28
(UTC+00:00)

ITUPSAT 1 - Visible Passes

Search period start: 26 June 2022 00:00
Search period end: 06 July 2022 00:00
Orbit: 700 x 712 km, 98.6° (Epoch: 25 June)

Date Brightness Start Highest point End Pass type
(mag) Time Alt. Az. Time Alt. Az. Time Alt. Az.
26 Jun ? 02:22:35 10° NNE 02:27:22 73° ESE 02:32:09 10° S visible
26 Jun ? 04:02:03 10° NNW 04:04:33 14° WNW 04:07:03 10° W visible
27 Jun ? 03:06:38 10° N 03:11:09 42° WNW 03:15:38 10° SW visible
28 Jun ? 03:51:29 10° NNW 03:54:37 18° WNW 03:57:45 10° WSW visible
29 Jun ? 02:56:28 10° N 03:01:07 53° WNW 03:05:46 10° SSW visible
30 Jun ? 03:41:04 10° NNW 03:44:40 22° WNW 03:48:16 10° WSW visible
01 Jul ? 02:46:19 10° N 02:51:05 68° WNW 02:55:49 10° SSW visible
02 Jul ? 03:30:44 10° N 03:34:42 26° WNW 03:38:40 10° WSW visible
03 Jul ? 02:36:13 10° NNE 02:41:02 85° WNW 02:45:49 10° SSW visible
03 Jul ? 04:16:43 10° NW 04:18:02 11° WNW 04:19:19 10° WNW visible
04 Jul ? 03:20:27 10° N 03:24:43 33° WNW 03:28:58 10° SW visible
05 Jul ? 02:26:09 10° NNE 02:30:58 77° ESE 02:35:45 10° S visible
05 Jul ? 04:05:44 10° NNW 04:08:06 14° WNW 04:10:29 10° W visible
